Regional Weather Roundup
Issued by NWS Sioux Falls, SD

Home | Current Version | Previous Version | Text Only | Print | Product List | Glossary On
Versions: 1 2 3 4 5 6 7 8 9 10 11 12 13 14 15 16 17 18 19 20 21 22 23 24 25 26 27 28 29 30 31 32 33 34 35 36 37 38 39 40 41 42 43 44 45 46 47 48 49 50
000
ASUS43 KFSD 190810
RWRFSD

WEATHER ROUNDUP FOR SE SOUTH DAKOTA/SW MINNESOTA/NW IOWA
NATIONAL WEATHER SERVICE SIOUX FALLS SD
300 AM CDT FRI SEP 19 2014

NOTE: "FAIR" INDICATES FEW OR NO CLOUDS BELOW 12,000 FEET WITH NO
SIGNIFICANT WEATHER AND OR OBSTRUCTIONS TO VISIBILITY.


SDZ038>040-050-052>070-190900-
SOUTHEAST SOUTH DAKOTA

CITY           SKY/WX    TMP DP  RH WIND       PRES   REMARKS
CHAMBERLAIN    PTCLDY    67  64  90 S15       29.73F
HURON          CLOUDY    65  57  75 S20G29    29.76F
MADISON        FAIR      59  59 100 S17G29    29.85F
MITCHELL       MOCLDY    63  57  81 S18G25    29.80F
SIOUX FALLS    PTCLDY    61  56  83 S18       29.87F
WINNER         FAIR      68  63  84 S20G30    29.72F
YANKTON        CLOUDY    63  57  82 S17G24    29.87F
$$

MNZ071-072-080-081-089-090-097-098-190900-
SOUTHWEST MINNESOTA

CITY           SKY/WX    TMP DP  RH WIND       PRES   REMARKS
FAIRMONT       MOCLDY    59  48  67 S13       29.96F
JACKSON        PTCLDY    59  54  82 S17G23    29.95F
LUVERNE        CLOUDY    61  55  82 S14G22    29.91F
MARSHALL       MOCLDY    61  52  72 S16G22    29.86S
MONTEVIDEO     CLOUDY    61  54  77 S10       29.86F
PIPESTONE      CLOUDY    61  55  82 S21       29.88F
REDWOOD FALLS  CLOUDY    60  55  83 S13       29.90F
TRACY          MOCLDY    60  56  85 S15G23    29.88F
WINDOM         MOCLDY    61  55  82 S17G24    29.92F
WORTHINGTON    MOCLDY    59  55  88 S17G24    29.93F
$$

IAZ001>003-012>014-020>022-031-032-NEZ013-014-SDZ071-190900-
NORTHWEST IOWA

CITY           SKY/WX    TMP DP  RH WIND       PRES   REMARKS
CHEROKEE       MOCLDY    58  57  98 S8        29.96F
DENISON        FAIR      59  57  94 S10       29.97S
ESTHERVILLE    PTCLDY    56  54  93 S15       29.97F
LE MARS          N/A     61  59  94 S14G20    29.92F
ORANGE CITY    MOCLDY    61  55  82 S14G21    29.92F
SHELDON        MOCLDY    59  57  94 S14       29.92F
SIOUX CITY     CLOUDY    61  58  90 S13       29.92F
SPENCER        CLEAR     58  55  90 S13       29.96F
STORM LAKE     CLEAR     55  55 100 S13       29.97F FOG
$$

ABBREVIATIONS USED IN REMARKS
   TC - TEMPERATURE IN CELSIUS
  WCI - WIND CHILL INDEX
   HX - HEAT INDEX
  VSB - VISIBILITY




USA.gov is the U.S. government's official web portal to all federal, state and local government web resources and services.